Location: Cork
(51.8990°N, 8.4960°W)
Time: 22:03:59
(UTC+01:00)

Iridium 66 - Visible Passes

Search period start: 23 August 2016 00:00
Search period end: 02 September 2016 00:00
Orbit: 776 x 779 km, 86.4° (Epoch: 23 August)

Date Brightness Start Highest point End Pass type
(mag) Time Alt. Az. Time Alt. Az. Time Alt. Az.
23 Aug 6.5 02:23:38 45° ESE 02:24:20 49° E 02:29:22 10° NNE visible
23 Aug 7.1 04:04:07 26° W 04:05:19 28° WNW 04:09:49 10° NNW visible
24 Aug 7.3 01:50:21 29° E 01:51:00 30° E 01:55:30 10° NNE visible
24 Aug 6.4 03:30:50 43° WSW 03:31:32 45° W 03:36:35 10° N visible
25 Aug 7.9 01:17:04 18° E 01:17:47 19° ENE 01:21:19 10° NNE visible
25 Aug 5.9 02:57:32 72° WSW 02:57:54 76° W 03:03:09 10° N visible
25 Aug 8.0 04:38:01 12° W 04:39:37 14° WNW 04:42:10 10° NNW visible
26 Aug 8.4 00:43:46 11° E 00:44:41 11° ENE 00:46:10 10° NE visible
26 Aug 6.1 02:24:15 66° E 02:24:23 66° E 02:29:34 10° N visible
26 Aug 7.5 04:04:43 21° W 04:05:38 22° WNW 04:09:36 10° NNW visible
27 Aug 6.9 01:50:56 40° E 01:50:58 40° E 01:55:49 10° NNE visible
27 Aug 6.9 03:31:25 34° W 03:31:46 34° WNW 03:36:32 10° N visible
28 Aug 7.6 01:17:38 25° E 01:17:41 25° ENE 01:21:51 10° NNE visible
28 Aug 6.3 02:58:07 56° WNW 02:58:07 56° WNW 03:03:13 10° N visible
29 Aug 8.1 00:44:19 15° ENE 00:44:30 15° ENE 00:47:27 10° NE visible
29 Aug 6.0 02:24:48 79° N 02:24:48 79° N 02:29:43 10° N visible
29 Aug 7.8 04:05:16 16° WNW 04:05:59 16° WNW 04:09:13 10° NNW visible
30 Aug 6.5 01:51:28 52° ENE 01:51:28 52° ENE 01:56:05 10° NNE visible
30 Aug 7.3 03:31:57 26° WNW 03:32:03 26° WNW 03:36:24 10° NNW visible
31 Aug 7.2 01:18:09 32° ENE 01:18:09 32° ENE 01:22:15 10° NNE visible
31 Aug 6.8 02:58:37 40° WNW 02:58:37 40° WNW 03:03:12 10° N visible
01 Sep 7.8 00:44:49 20° ENE 00:44:49 20° ENE 00:48:09 10° NNE visible
01 Sep 6.4 02:25:18 60° NW 02:25:18 60° NW 02:29:49 10° N visible
01 Sep 8.2 04:05:46 12° WNW 04:06:23 12° WNW 04:08:28 10° NW visible
